{"data":{"norad_id":48138,"intl_designator":"2021-027AY","name":"STARLINK-2481","alt_names":[],"object_type":"PAYLOAD","status":"ACTIVE","operator":null,"country":"US","launch_date":"2021-04-07","launch_site_code":"AFETR","launch_vehicle":null,"mission":null,"orbit_class":"UNKNOWN","rcs_meters":null,"size_class":null,"mass_kg":null,"dimensions":null,"purposes":["comms"],"wikipedia_slug":null,"has_3d_model":false,"image_url":null,"decayed_at":null,"tle_current":{"epoch":"2026-05-25T02:19:04.543104Z","epoch_age_seconds":60560,"freshness":"FRESH","line1":"1 48138U 21027AY  26145.09658036  .00000631  00000+0  32103-4 0  9993","line2":"2 48138  53.1580 172.3866 0001737  75.0902 285.0291 15.31705427284187","mean_motion":15.31705427,"eccentricity":0.0001737,"inclination_deg":53.158,"raan_deg":172.3866,"arg_perigee_deg":75.0902,"mean_anomaly_deg":285.0291,"bstar":3.2103e-5,"rev_number":28418,"period_min":94.012854862073,"perigee_km":469.53417054478,"apogee_km":471.91346479284,"semimajor_km":6848.8608176688,"source":"CELESTRAK","updated_at":"2026-05-25T13:38:16.650111Z"}}}